Overview Statistics Trail Chart Weather Telemetry Raw packets
 

This is the latest recevied weather packets stored in our database for station/object IZ5MMH-1. If no packets are shown the sender has not sent any weather packets the latest 10 day(s).

<< 51 52 53 54 55 56 57 >>
Time Temp. Humidity Pressure Rain* Wind** Luminosity Snow
1787778892 23.89° C 64% 1017.6 hPa - - - -
1787778289 23.89° C 62% 1017.7 hPa - - - -
1787777690 24.44° C 61% 1017.6 hPa - - - -
1787777090 24.44° C 61% 1017.8 hPa - - - -
1787776490 25° C 60% 1017.8 hPa - - - -
1787775889 25° C 63% 1017.7 hPa - - - -
1787775294 25° C 63% 1017.5 hPa - - - -
1787774691 25.56° C 58% 1017.4 hPa - - - -
1787774090 25.56° C 62% 1017.1 hPa - - - -
1787773490 26.11° C 56% 1017 hPa - - - -
1787772889 26.11° C 57% 1017.2 hPa - - - -
1787772291 26.67° C 55% 1016.9 hPa - - - -
1787771689 27.22° C 54% 1017.2 hPa - - - -
1787771091 27.22° C 56% 1016.9 hPa - - - -
1787770490 27.78° C 55% 1016.6 hPa - - - -
1787769890 27.78° C 54% 1016.2 hPa - - - -
1787769290 28.33° C 53% 1016 hPa - - - -
1787768690 28.33° C 53% 1016.2 hPa - - - -
1787768090 28.33° C 55% 1017.4 hPa - - - -
1787767490 28.89° C 53% 1017.1 hPa - - - -
1787766890 29.44° C 53% 1017.1 hPa - - - -
1787766290 30° C 51% 1016.6 hPa - - - -
1787765689 30.56° C 49% 1016.1 hPa - - - -
1787765090 30.56° C 47% 1016.1 hPa - - - -
1787764490 31.11° C 47% 1016.4 hPa - - - -

* Rain since midnight (hover to see other rain measurements)
** Current wind speed in m/s (hover to see current wind gust speed)